Time,TemperatureF,DewpointF,PressureIn,WindDirection,WindDirectionDegrees,WindSpeedMPH,WindSpeedGustMPH,Humidity,HourlyPrecipIn,Conditions,Clouds,dailyrainin,SoftwareType,DateUTC
2013-07-01 00:08:00,55.6,53.6,30.03,NE,50,0.0,0.0,93,0.00,,,0.00,Wunderground v.1.15,2013-07-01 05:08:00,
2013-07-01 00:13:00,55.5,53.5,30.03,NE,49,0.0,0.0,93,0.00,,,0.00,Wunderground v.1.15,2013-07-01 05:13:00,
2013-07-01 00:18:00,55.3,53.3,30.03,NE,49,0.0,0.0,93,0.00,,,0.00,Wunderground v.1.15,2013-07-01 05:18:00,
2013-07-01 00:23:00,55.2,53.2,30.03,NE,50,0.0,0.0,93,0.00,,,0.00,Wunderground v.1.15,2013-07-01 05:23:00,
2013-07-01 00:28:00,55.1,53.4,30.03,NE,50,0.0,0.0,94,0.00,,,0.00,Wunderground v.1.15,2013-07-01 05:28:00,
2013-07-01 00:33:00,55.3,53.6,30.03,NE,50,0.0,0.0,94,0.00,,,0.00,Wunderground v.1.15,2013-07-01 05:33:00,
2013-07-01 00:38:00,55.2,53.5,30.03,NE,49,0.0,0.0,94,0.00,,,0.00,Wunderground v.1.15,2013-07-01 05:38:00,
2013-07-01 00:48:00,54.8,53.1,30.03,NE,50,0.0,0.0,94,0.00,,,0.00,Wunderground v.1.15,2013-07-01 05:48:00,
2013-07-01 00:53:00,54.8,53.1,30.03,NE,49,0.0,0.0,94,0.00,,,0.00,Wunderground v.1.15,2013-07-01 05:53:00,
2013-07-01 00:58:00,54.9,53.5,30.03,NE,50,0.0,0.0,95,0.00,,,0.00,Wunderground v.1.15,2013-07-01 05:58:00,
2013-07-01 01:08:00,54.9,53.5,30.03,NE,50,0.0,0.0,95,0.00,,,0.00,Wunderground v.1.15,2013-07-01 06:08:00,
2013-07-01 01:13:00,54.8,53.4,30.03,NE,49,0.0,0.0,95,0.00,,,0.00,Wunderground v.1.15,2013-07-01 06:13:00,
2013-07-01 01:18:00,54.8,53.4,30.04,NE,50,0.0,0.0,95,0.00,,,0.00,Wunderground v.1.15,2013-07-01 06:18:00,
2013-07-01 01:23:00,54.6,53.2,30.04,NE,50,0.0,0.0,95,0.00,,,0.00,Wunderground v.1.15,2013-07-01 06:23:00,
2013-07-01 01:28:00,54.6,53.2,30.04,NE,50,0.0,0.0,95,0.00,,,0.00,Wunderground v.1.15,2013-07-01 06:28:00,
2013-07-01 01:38:00,54.2,52.8,30.04,NE,50,0.0,0.0,95,0.00,,,0.00,Wunderground v.1.15,2013-07-01 06:38:00,
2013-07-01 01:43:00,54.2,52.8,30.04,NE,50,0.0,0.0,95,0.00,,,0.00,Wunderground v.1.15,2013-07-01 06:43:00,
2013-07-01 01:53:00,53.8,52.4,30.04,NE,50,0.0,0.0,95,0.00,,,0.00,Wunderground v.1.15,2013-07-01 06:53:00,
2013-07-01 01:58:00,53.6,52.2,30.04,NE,49,0.0,0.0,95,0.00,,,0.00,Wunderground v.1.15,2013-07-01 06:58:00,
2013-07-01 02:08:00,53.9,52.5,30.04,NE,50,0.0,0.0,95,0.00,,,0.00,Wunderground v.1.15,2013-07-01 07:08:00,
2013-07-01 02:13:00,53.8,52.4,30.04,NE,49,0.0,0.0,95,0.00,,,0.00,Wunderground v.1.15,2013-07-01 07:13:00,
2013-07-01 02:18:00,53.8,52.7,30.04,NE,49,0.0,0.0,96,0.00,,,0.00,Wunderground v.1.15,2013-07-01 07:18:00,
2013-07-01 02:23:00,53.5,52.1,30.04,NE,49,0.0,0.0,95,0.00,,,0.00,Wunderground v.1.15,2013-07-01 07:23:00,
2013-07-01 02:28:00,53.3,52.2,30.04,NE,50,0.0,0.0,96,0.00,,,0.00,Wunderground v.1.15,2013-07-01 07:28:00,
2013-07-01 02:33:00,53.5,52.4,30.04,NE,50,0.0,0.0,96,0.00,,,0.00,Wunderground v.1.15,2013-07-01 07:33:00,
2013-07-01 02:43:00,53.6,52.5,30.04,NE,50,0.0,0.0,96,0.00,,,0.00,Wunderground v.1.15,2013-07-01 07:43:00,
2013-07-01 02:48:00,53.5,52.4,30.04,NE,50,0.0,0.0,96,0.00,,,0.00,Wunderground v.1.15,2013-07-01 07:48:00,
2013-07-01 02:53:00,53.4,52.3,30.04,NE,49,0.0,0.0,96,0.00,,,0.00,Wunderground v.1.15,2013-07-01 07:53:00,
2013-07-01 03:03:00,53.3,52.2,30.04,NE,50,0.0,0.0,96,0.00,,,0.00,Wunderground v.1.15,2013-07-01 08:03:00,
2013-07-01 03:08:00,53.1,52.0,30.04,NE,50,0.0,0.0,96,0.00,,,0.00,Wunderground v.1.15,2013-07-01 08:08:00,
2013-07-01 03:18:00,53.0,51.9,30.04,NE,49,0.0,0.0,96,0.00,,,0.00,Wunderground v.1.15,2013-07-01 08:18:00,
2013-07-01 03:23:00,53.1,52.0,30.05,NE,50,0.0,0.0,96,0.00,,,0.00,Wunderground v.1.15,2013-07-01 08:23:00,
2013-07-01 03:28:00,53.0,51.9,30.05,NE,50,0.0,0.0,96,0.00,,,0.00,Wunderground v.1.15,2013-07-01 08:28:00,
2013-07-01 03:33:00,53.1,52.0,30.05,NE,49,0.0,0.0,96,0.00,,,0.00,Wunderground v.1.15,2013-07-01 08:33:00,
2013-07-01 03:38:00,53.1,52.0,30.05,NE,49,0.0,0.0,96,0.00,,,0.00,Wunderground v.1.15,2013-07-01 08:38:00,
2013-07-01 03:43:00,53.1,52.0,30.05,NE,50,0.0,0.0,96,0.00,,,0.00,Wunderground v.1.15,2013-07-01 08:43:00,
2013-07-01 03:53:00,52.8,51.7,30.05,NE,50,0.0,0.0,96,0.00,,,0.00,Wunderground v.1.15,2013-07-01 08:53:00,
2013-07-01 03:58:00,52.7,51.6,30.05,NE,49,0.0,0.0,96,0.00,,,0.00,Wunderground v.1.15,2013-07-01 08:58:00,
2013-07-01 04:08:00,53.1,52.0,30.05,NE,50,0.0,0.0,96,0.00,,,0.00,Wunderground v.1.15,2013-07-01 09:08:00,
2013-07-01 04:18:00,52.9,51.8,30.05,NE,49,0.0,0.0,96,0.00,,,0.00,Wunderground v.1.15,2013-07-01 09:18:00,
2013-07-01 04:28:00,52.9,51.8,30.06,NE,49,0.0,0.0,96,0.00,,,0.00,Wunderground v.1.15,2013-07-01 09:28:00,
2013-07-01 04:33:00,53.1,52.0,30.06,NE,50,0.0,0.0,96,0.00,,,0.00,Wunderground v.1.15,2013-07-01 09:33:00,
2013-07-01 04:38:00,53.3,52.2,30.06,NE,50,0.0,0.0,96,0.00,,,0.00,Wunderground v.1.15,2013-07-01 09:38:00,
2013-07-01 04:43:00,53.6,52.8,30.06,NE,50,0.0,0.0,97,0.00,,,0.00,Wunderground v.1.15,2013-07-01 09:43:00,
2013-07-01 04:48:00,53.8,53.0,30.06,NE,50,0.0,0.0,97,0.00,,,0.00,Wunderground v.1.15,2013-07-01 09:48:00,
2013-07-01 04:58:00,53.8,52.7,30.06,NE,50,0.0,0.0,96,0.00,,,0.00,Wunderground v.1.15,2013-07-01 09:58:00,
2013-07-01 05:08:00,54.1,52.7,30.07,NE,50,0.0,0.0,95,0.00,,,0.00,Wunderground v.1.15,2013-07-01 10:08:00,
2013-07-01 05:13:00,54.2,52.8,30.07,NE,50,0.0,0.0,95,0.00,,,0.00,Wunderground v.1.15,2013-07-01 10:13:00,
2013-07-01 05:18:00,54.5,52.8,30.07,NE,50,0.0,0.0,94,0.00,,,0.00,Wunderground v.1.15,2013-07-01 10:18:00,
2013-07-01 05:23:00,54.7,52.7,30.07,NE,50,0.0,0.0,93,0.00,,,0.00,Wunderground v.1.15,2013-07-01 10:23:00,
2013-07-01 05:33:00,54.7,52.4,30.07,NE,50,0.0,0.0,92,0.00,,,0.00,Wunderground v.1.15,2013-07-01 10:33:00,
2013-07-01 05:43:00,54.4,52.1,30.07,NE,50,0.0,0.0,92,0.00,,,0.00,Wunderground v.1.15,2013-07-01 10:43:00,
2013-07-01 05:48:00,54.6,52.3,30.07,NE,48,0.0,0.0,92,0.00,,,0.00,Wunderground v.1.15,2013-07-01 10:48:00,
2013-07-01 05:53:00,55.2,52.6,30.08,NE,49,0.0,0.0,91,0.00,,,0.00,Wunderground v.1.15,2013-07-01 10:53:00,
2013-07-01 05:58:00,55.9,53.0,30.08,NE,49,0.0,0.0,90,0.00,,,0.00,Wunderground v.1.15,2013-07-01 10:58:00,
2013-07-01 06:08:00,56.9,53.4,30.08,WSW,252,0.0,0.0,88,0.00,,,0.00,Wunderground v.1.15,2013-07-01 11:08:00,
2013-07-01 06:13:00,57.2,53.4,30.08,WSW,253,0.0,0.0,87,0.00,,,0.00,Wunderground v.1.15,2013-07-01 11:13:00,
2013-07-01 06:18:00,57.1,53.3,30.08,WSW,253,0.0,0.0,87,0.00,,,0.00,Wunderground v.1.15,2013-07-01 11:18:00,
2013-07-01 06:23:00,57.0,53.2,30.08,WSW,253,0.0,0.0,87,0.00,,,0.00,Wunderground v.1.15,2013-07-01 11:23:00,
2013-07-01 06:33:00,57.4,53.6,30.08,SSW,194,0.0,0.0,87,0.00,,,0.00,Wunderground v.1.15,2013-07-01 11:33:00,
2013-07-01 06:38:00,57.7,53.9,30.08,SSW,195,0.0,0.0,87,0.00,,,0.00,Wunderground v.1.15,2013-07-01 11:38:00,
2013-07-01 06:48:00,58.1,53.9,30.08,SSW,194,0.0,0.0,86,0.00,,,0.00,Wunderground v.1.15,2013-07-01 11:48:00,
2013-07-01 06:53:00,58.2,54.0,30.08,ESE,109,0.0,0.0,86,0.00,,,0.00,Wunderground v.1.15,2013-07-01 11:53:00,
2013-07-01 06:58:00,58.6,54.1,30.08,ESE,109,0.0,0.0,85,0.00,,,0.00,Wunderground v.1.15,2013-07-01 11:58:00,
2013-07-01 07:08:00,59.3,54.5,30.08,ESE,108,0.0,0.0,84,0.00,,,0.00,Wunderground v.1.15,2013-07-01 12:08:00,
2013-07-01 07:13:00,59.7,54.9,30.09,WNW,298,0.0,0.0,84,0.00,,,0.00,Wunderground v.1.15,2013-07-01 12:13:00,
2013-07-01 07:18:00,60.2,54.7,30.09,NNE,33,0.0,0.0,82,0.00,,,0.00,Wunderground v.1.15,2013-07-01 12:18:00,
2013-07-01 07:23:00,60.4,54.9,30.09,NNW,335,0.0,0.0,82,0.00,,,0.00,Wunderground v.1.15,2013-07-01 12:23:00,
2013-07-01 07:28:00,60.7,54.8,30.09,North,4,0.0,0.0,81,0.00,,,0.00,Wunderground v.1.15,2013-07-01 12:28:00,
2013-07-01 07:33:00,61.2,55.3,30.09,NE,42,0.0,0.0,81,0.00,,,0.00,Wunderground v.1.15,2013-07-01 12:33:00,
2013-07-01 07:43:00,61.9,56.0,30.09,WNW,298,0.0,0.0,81,0.00,,,0.00,Wunderground v.1.15,2013-07-01 12:43:00,
2013-07-01 07:48:00,62.3,56.0,30.09,NE,43,0.0,0.0,80,0.00,,,0.00,Wunderground v.1.15,2013-07-01 12:48:00,
2013-07-01 07:53:00,62.5,55.9,30.09,North,1,1.0,1.0,79,0.00,,,0.00,Wunderground v.1.15,2013-07-01 12:53:00,
2013-07-01 07:58:00,62.9,56.3,30.09,NNW,339,1.0,2.0,79,0.00,,,0.00,Wunderground v.1.15,2013-07-01 12:58:00,
2013-07-01 08:08:00,63.5,56.5,30.10,North,351,2.0,2.0,78,0.00,,,0.00,Wunderground v.1.15,2013-07-01 13:08:00,
2013-07-01 08:13:00,63.8,56.4,30.10,NNE,12,2.0,2.0,77,0.00,,,0.00,Wunderground v.1.15,2013-07-01 13:13:00,
2013-07-01 08:23:00,64.6,56.5,30.10,North,360,2.0,3.0,75,0.00,,,0.00,Wunderground v.1.15,2013-07-01 13:23:00,
2013-07-01 08:28:00,64.9,56.4,30.10,North,356,2.0,2.0,74,0.00,,,0.00,Wunderground v.1.15,2013-07-01 13:28:00,
2013-07-01 08:33:00,65.3,57.2,30.10,NW,321,2.0,2.0,75,0.00,,,0.00,Wunderground v.1.15,2013-07-01 13:33:00,
2013-07-01 08:38:00,65.7,56.8,30.10,ENE,57,2.0,2.0,73,0.00,,,0.00,Wunderground v.1.15,2013-07-01 13:38:00,
2013-07-01 08:43:00,66.1,56.4,30.10,WNW,297,2.0,2.0,71,0.00,,,0.00,Wunderground v.1.15,2013-07-01 13:43:00,
2013-07-01 08:53:00,66.8,55.5,30.10,NE,51,3.0,6.0,67,0.00,,,0.00,Wunderground v.1.15,2013-07-01 13:53:00,
2013-07-01 08:58:00,67.4,56.1,30.10,ENE,72,3.0,3.0,67,0.00,,,0.00,Wunderground v.1.15,2013-07-01 13:58:00,
2013-07-01 09:13:00,68.4,55.7,30.11,NNW,328,3.0,4.0,64,0.00,,,0.00,Wunderground v.1.15,2013-07-01 14:13:00,
2013-07-01 09:18:00,68.5,55.0,30.11,NNE,23,3.0,3.0,62,0.00,,,0.00,Wunderground v.1.15,2013-07-01 14:18:00,
2013-07-01 09:23:00,68.7,56.0,30.11,NW,325,3.0,3.0,64,0.00,,,0.00,Wunderground v.1.15,2013-07-01 14:23:00,
2013-07-01 09:32:00,69.5,56.3,30.10,NNE,25,2.0,3.0,63,0.00,,,0.00,Wunderground v.1.15,2013-07-01 14:32:00,
2013-07-01 09:42:00,70.0,54.5,30.10,NNW,347,2.0,3.0,58,0.00,,,0.00,Wunderground v.1.15,2013-07-01 14:42:00,
2013-07-01 09:47:00,70.4,54.9,30.10,ENE,68,2.0,6.0,58,0.00,,,0.00,Wunderground v.1.15,2013-07-01 14:47:00,
2013-07-01 09:52:00,70.7,55.2,30.10,NNW,341,2.0,6.0,58,0.00,,,0.00,Wunderground v.1.15,2013-07-01 14:52:00,
2013-07-01 09:58:00,71.1,55.1,30.11,NW,305,3.0,4.0,57,0.00,,,0.00,Wunderground v.1.15,2013-07-01 14:58:00,
2013-07-01 10:08:00,71.7,55.7,30.10,ESE,105,3.0,3.0,57,0.00,,,0.00,Wunderground v.1.15,2013-07-01 15:08:00,
2013-07-01 10:13:00,71.9,54.9,30.10,NNE,12,3.0,3.0,55,0.00,,,0.00,Wunderground v.1.15,2013-07-01 15:13:00,
2013-07-01 10:22:00,72.5,56.4,30.10,NW,311,3.0,4.0,57,0.00,,,0.00,Wunderground v.1.15,2013-07-01 15:22:00,
2013-07-01 10:27:00,72.7,56.1,30.11,North,350,3.0,3.0,56,0.00,,,0.00,Wunderground v.1.15,2013-07-01 15:27:00,
2013-07-01 10:32:00,72.8,55.2,30.10,East,79,4.0,4.0,54,0.00,,,0.00,Wunderground v.1.15,2013-07-01 15:32:00,
2013-07-01 10:37:00,73.0,57.3,30.11,North,352,3.0,3.0,58,0.00,,,0.00,Wunderground v.1.15,2013-07-01 15:37:00,
2013-07-01 10:42:00,73.0,55.9,30.10,NW,305,3.0,3.0,55,0.00,,,0.00,Wunderground v.1.15,2013-07-01 15:42:00,
2013-07-01 10:52:00,73.4,54.2,30.11,NE,40,3.0,6.0,51,0.00,,,0.00,Wunderground v.1.15,2013-07-01 15:52:00,
2013-07-01 11:02:00,73.5,55.3,30.11,NE,40,3.0,5.0,53,0.00,,,0.00,Wunderground v.1.15,2013-07-01 16:02:00,
2013-07-01 11:07:00,73.7,56.0,30.10,NNE,32,4.0,4.0,54,0.00,,,0.00,Wunderground v.1.15,2013-07-01 16:07:00,
2013-07-01 11:12:00,74.2,56.0,30.11,West,265,3.0,4.0,53,0.00,,,0.00,Wunderground v.1.15,2013-07-01 16:12:00,
2013-07-01 11:17:00,74.2,56.0,30.10,NE,40,3.0,4.0,53,0.00,,,0.00,Wunderground v.1.15,2013-07-01 16:17:00,
2013-07-01 11:27:00,74.6,55.8,30.10,North,8,3.0,4.0,52,0.00,,,0.00,Wunderground v.1.15,2013-07-01 16:27:00,
2013-07-01 11:32:00,74.8,56.5,30.10,NW,323,3.0,4.0,53,0.00,,,0.00,Wunderground v.1.15,2013-07-01 16:32:00,
2013-07-01 11:37:00,74.9,56.1,30.10,NE,39,3.0,3.0,52,0.00,,,0.00,Wunderground v.1.15,2013-07-01 16:37:00,
2013-07-01 11:47:00,75.0,56.2,30.10,North,350,4.0,4.0,52,0.00,,,0.00,Wunderground v.1.15,2013-07-01 16:47:00,
2013-07-01 11:52:00,75.1,55.7,30.10,NE,41,4.0,4.0,51,0.00,,,0.00,Wunderground v.1.15,2013-07-01 16:52:00,
2013-07-01 11:57:00,75.3,55.4,30.10,NNW,347,4.0,4.0,50,0.00,,,0.00,Wunderground v.1.15,2013-07-01 16:57:00,
2013-07-01 12:07:00,75.6,56.2,30.10,NNE,29,4.0,4.0,51,0.00,,,0.00,Wunderground v.1.15,2013-07-01 17:07:00,
2013-07-01 12:12:00,75.9,56.5,30.10,East,83,4.0,4.0,51,0.00,,,0.00,Wunderground v.1.15,2013-07-01 17:12:00,
2013-07-01 12:17:00,76.2,55.6,30.10,NE,41,3.0,3.0,49,0.00,,,0.00,Wunderground v.1.15,2013-07-01 17:17:00,
2013-07-01 12:22:00,76.4,56.4,30.09,NE,53,3.0,3.0,50,0.00,,,0.00,Wunderground v.1.15,2013-07-01 17:22:00,
2013-07-01 12:32:00,76.7,56.1,30.09,North,5,4.0,9.0,49,0.00,,,0.00,Wunderground v.1.15,2013-07-01 17:32:00,
2013-07-01 12:37:00,76.6,56.0,30.09,NNE,22,4.0,4.0,49,0.00,,,0.00,Wunderground v.1.15,2013-07-01 17:37:00,
2013-07-01 12:42:00,76.9,57.4,30.09,NNW,339,3.0,4.0,51,0.00,,,0.00,Wunderground v.1.15,2013-07-01 17:42:00,
2013-07-01 12:47:00,77.1,55.9,30.09,NNE,15,3.0,7.0,48,0.00,,,0.00,Wunderground v.1.15,2013-07-01 17:47:00,
2013-07-01 12:52:00,77.2,56.0,30.09,NE,53,3.0,7.0,48,0.00,,,0.00,Wunderground v.1.15,2013-07-01 17:52:00,
2013-07-01 12:57:00,77.5,55.7,30.09,NE,47,4.0,4.0,47,0.00,,,0.00,Wunderground v.1.15,2013-07-01 17:57:00,
2013-07-01 13:07:00,77.4,55.0,30.09,NNE,19,4.0,8.0,46,0.00,,,0.00,Wunderground v.1.15,2013-07-01 18:07:00,
2013-07-01 13:12:00,77.8,57.7,30.09,ENE,58,4.0,8.0,50,0.00,,,0.00,Wunderground v.1.15,2013-07-01 18:12:00,
2013-07-01 13:22:00,78.4,55.9,30.09,North,354,3.0,7.0,46,0.00,,,0.00,Wunderground v.1.15,2013-07-01 18:22:00,
2013-07-01 13:27:00,78.3,54.6,30.09,NNW,346,3.0,6.0,44,0.00,,,0.00,Wunderground v.1.15,2013-07-01 18:27:00,
2013-07-01 13:32:00,78.0,55.5,30.09,ESE,117,4.0,6.0,46,0.00,,,0.00,Wunderground v.1.15,2013-07-01 18:32:00,
2013-07-01 13:37:00,78.3,55.8,30.08,NE,34,3.0,3.0,46,0.00,,,0.00,Wunderground v.1.15,2013-07-01 18:37:00,
2013-07-01 13:42:00,78.4,55.3,30.09,North,11,3.0,3.0,45,0.00,,,0.00,Wunderground v.1.15,2013-07-01 18:42:00,
2013-07-01 13:53:00,78.2,55.1,30.09,NNW,329,5.0,6.0,45,0.00,,,0.00,Wunderground v.1.15,2013-07-01 18:53:00,
2013-07-01 13:58:00,78.4,55.9,30.09,NNE,19,5.0,5.0,46,0.00,,,0.00,Wunderground v.1.15,2013-07-01 18:58:00,
2013-07-01 14:08:00,78.7,56.2,30.08,ENE,70,3.0,3.0,46,0.00,,,0.00,Wunderground v.1.15,2013-07-01 19:08:00,
2013-07-01 14:18:00,78.7,55.0,30.08,East,88,4.0,4.0,44,0.00,,,0.00,Wunderground v.1.15,2013-07-01 19:18:00,
2013-07-01 14:23:00,79.1,54.0,30.08,SSW,195,3.0,4.0,42,0.00,,,0.00,Wunderground v.1.15,2013-07-01 19:23:00,
2013-07-01 14:28:00,79.3,54.2,30.08,ENE,57,3.0,6.0,42,0.00,,,0.00,Wunderground v.1.15,2013-07-01 19:28:00,
2013-07-01 14:33:00,79.3,54.2,30.08,NE,34,4.0,6.0,42,0.00,,,0.00,Wunderground v.1.15,2013-07-01 19:33:00,
2013-07-01 14:43:00,79.1,56.5,30.08,SE,145,3.0,5.0,46,0.00,,,0.00,Wunderground v.1.15,2013-07-01 19:43:00,
2013-07-01 14:52:00,79.2,52.8,30.08,NE,39,5.0,7.0,40,0.00,,,0.00,Wunderground v.1.15,2013-07-01 19:52:00,
2013-07-01 14:58:00,79.0,54.6,30.08,NNE,30,5.0,5.0,43,0.00,,,0.00,Wunderground v.1.15,2013-07-01 19:58:00,
2013-07-01 15:07:00,79.0,52.6,30.08,ENE,75,3.0,3.0,40,0.00,,,0.00,Wunderground v.1.15,2013-07-01 20:07:00,
2013-07-01 15:17:00,79.5,55.7,30.08,NW,304,4.0,4.0,44,0.00,,,0.00,Wunderground v.1.15,2013-07-01 20:17:00,
2013-07-01 15:23:00,79.5,54.4,30.08,North,350,4.0,4.0,42,0.00,,,0.00,Wunderground v.1.15,2013-07-01 20:23:00,
2013-07-01 15:32:00,79.4,54.3,30.08,ENE,78,5.0,8.0,42,0.00,,,0.00,Wunderground v.1.15,2013-07-01 20:32:00,
2013-07-01 15:37:00,79.3,53.6,30.08,NNE,27,5.0,5.0,41,0.00,,,0.00,Wunderground v.1.15,2013-07-01 20:37:00,
2013-07-01 15:42:00,79.6,54.5,30.08,North,1,4.0,5.0,42,0.00,,,0.00,Wunderground v.1.15,2013-07-01 20:42:00,
2013-07-01 15:52:00,80.1,55.6,30.08,NE,37,2.0,5.0,43,0.00,,,0.00,Wunderground v.1.15,2013-07-01 20:52:00,
2013-07-01 15:57:00,80.1,54.3,30.08,SE,127,3.0,3.0,41,0.00,,,0.00,Wunderground v.1.15,2013-07-01 20:57:00,
2013-07-01 16:07:00,80.4,55.2,30.08,NE,55,3.0,3.0,42,0.00,,,0.00,Wunderground v.1.15,2013-07-01 21:07:00,
2013-07-01 16:12:00,80.3,54.5,30.08,East,94,3.0,3.0,41,0.00,,,0.00,Wunderground v.1.15,2013-07-01 21:12:00,
2013-07-01 16:22:00,79.7,55.2,30.08,NE,43,2.0,3.0,43,0.00,,,0.00,Wunderground v.1.15,2013-07-01 21:22:00,
2013-07-01 16:27:00,79.2,53.5,30.08,NE,44,2.0,4.0,41,0.00,,,0.00,Wunderground v.1.15,2013-07-01 21:27:00,
2013-07-01 16:32:00,79.3,54.9,30.08,ESE,114,2.0,4.0,43,0.00,,,0.00,Wunderground v.1.15,2013-07-01 21:32:00,
2013-07-01 16:37:00,79.5,55.0,30.08,NNW,329,2.0,4.0,43,0.00,,,0.00,Wunderground v.1.15,2013-07-01 21:37:00,
2013-07-01 16:42:00,79.8,55.9,30.08,North,360,2.0,4.0,44,0.00,,,0.00,Wunderground v.1.15,2013-07-01 21:42:00,
2013-07-01 16:47:00,80.1,54.3,30.08,NNW,347,2.0,3.0,41,0.00,,,0.00,Wunderground v.1.15,2013-07-01 21:47:00,
2013-07-01 16:52:00,80.3,55.8,30.08,ESE,115,2.0,3.0,43,0.00,,,0.00,Wunderground v.1.15,2013-07-01 21:52:00,
2013-07-01 16:57:00,80.2,53.7,30.09,NE,51,2.0,4.0,40,0.00,,,0.00,Wunderground v.1.15,2013-07-01 21:57:00,
2013-07-01 17:07:00,78.7,54.3,30.08,NE,44,2.0,2.0,43,0.00,,,0.00,Wunderground v.1.15,2013-07-01 22:07:00,
2013-07-01 17:17:00,78.6,54.9,30.08,NE,40,2.0,2.0,44,0.00,,,0.00,Wunderground v.1.15,2013-07-01 22:17:00,
2013-07-01 17:22:00,79.2,53.5,30.08,NE,40,2.0,5.0,41,0.00,,,0.00,Wunderground v.1.15,2013-07-01 22:22:00,
2013-07-01 17:27:00,79.3,54.9,30.08,NNE,32,3.0,3.0,43,0.00,,,0.00,Wunderground v.1.15,2013-07-01 22:27:00,
2013-07-01 17:37:00,79.3,55.5,30.08,NNE,16,4.0,4.0,44,0.00,,,0.00,Wunderground v.1.15,2013-07-01 22:37:00,
2013-07-01 17:42:00,79.7,56.5,30.08,South,174,2.0,4.0,45,0.00,,,0.00,Wunderground v.1.15,2013-07-01 22:42:00,
2013-07-01 17:47:00,79.6,55.1,30.08,ENE,58,1.0,1.0,43,0.00,,,0.00,Wunderground v.1.15,2013-07-01 22:47:00,
2013-07-01 17:52:00,79.6,53.8,30.08,NE,37,1.0,5.0,41,0.00,,,0.00,Wunderground v.1.15,2013-07-01 22:52:00,
2013-07-01 18:02:00,79.3,52.9,30.07,NE,50,2.0,4.0,40,0.00,,,0.00,Wunderground v.1.15,2013-07-01 23:02:00,
2013-07-01 18:12:00,79.2,56.6,30.07,East,92,3.0,3.0,46,0.00,,,0.00,Wunderground v.1.15,2013-07-01 23:12:00,
2013-07-01 18:17:00,78.9,53.2,30.07,ENE,70,2.0,2.0,41,0.00,,,0.00,Wunderground v.1.15,2013-07-01 23:17:00,
2013-07-01 18:22:00,79.1,54.7,30.07,North,6,2.0,2.0,43,0.00,,,0.00,Wunderground v.1.15,2013-07-01 23:22:00,
2013-07-01 18:27:00,79.0,54.6,30.07,NE,36,1.0,1.0,43,0.00,,,0.00,Wunderground v.1.15,2013-07-01 23:27:00,
2013-07-01 18:37:00,78.8,53.8,30.07,NNE,33,2.0,2.0,42,0.00,,,0.00,Wunderground v.1.15,2013-07-01 23:37:00,
2013-07-01 18:47:00,78.4,52.7,30.07,NE,51,2.0,2.0,41,0.00,,,0.00,Wunderground v.1.15,2013-07-01 23:47:00,
2013-07-01 18:53:00,78.2,53.9,30.07,NE,34,1.0,2.0,43,0.00,,,0.00,Wunderground v.1.15,2013-07-01 23:53:00,
2013-07-01 18:58:00,78.0,54.3,30.07,NE,40,1.0,1.0,44,0.00,,,0.00,Wunderground v.1.15,2013-07-01 23:58:00,
2013-07-01 19:08:00,78.2,53.9,30.07,NE,38,1.0,1.0,43,0.00,,,0.00,Wunderground v.1.15,2013-07-02 00:08:00,
2013-07-01 19:13:00,77.9,53.0,30.07,NNE,25,0.0,1.0,42,0.00,,,0.00,Wunderground v.1.15,2013-07-02 00:13:00,
2013-07-01 19:18:00,77.6,54.0,30.07,NE,45,1.0,1.0,44,0.00,,,0.00,Wunderground v.1.15,2013-07-02 00:18:00,
2013-07-01 19:28:00,77.1,52.2,30.07,NE,43,1.0,1.0,42,0.00,,,0.00,Wunderground v.1.15,2013-07-02 00:28:00,
2013-07-01 19:33:00,76.9,53.3,30.07,NNE,31,1.0,1.0,44,0.00,,,0.00,Wunderground v.1.15,2013-07-02 00:33:00,
2013-07-01 19:38:00,76.7,54.4,30.07,NNE,33,1.0,1.0,46,0.00,,,0.00,Wunderground v.1.15,2013-07-02 00:38:00,
2013-07-01 19:48:00,76.4,54.7,30.07,NNE,32,0.0,0.0,47,0.00,,,0.00,Wunderground v.1.15,2013-07-02 00:48:00,
2013-07-01 19:53:00,76.3,54.0,30.07,NNE,32,0.0,0.0,46,0.00,,,0.00,Wunderground v.1.15,2013-07-02 00:53:00,
2013-07-01 19:58:00,75.9,54.2,30.07,NNE,32,0.0,0.0,47,0.00,,,0.00,Wunderground v.1.15,2013-07-02 00:58:00,
2013-07-01 20:08:00,75.2,53.6,30.07,NNE,30,0.0,0.0,47,0.00,,,0.00,Wunderground v.1.15,2013-07-02 01:08:00,
2013-07-01 20:13:00,74.7,54.3,30.07,NNE,30,0.0,0.0,49,0.00,,,0.00,Wunderground v.1.15,2013-07-02 01:13:00,
2013-07-01 20:18:00,74.0,56.3,30.07,NNE,32,0.0,0.0,54,0.00,,,0.00,Wunderground v.1.15,2013-07-02 01:18:00,
2013-07-01 20:23:00,72.8,56.7,30.07,NNE,32,0.0,0.0,57,0.00,,,0.00,Wunderground v.1.15,2013-07-02 01:23:00,
2013-07-01 20:28:00,71.7,55.7,30.07,NNE,32,0.0,0.0,57,0.00,,,0.00,Wunderground v.1.15,2013-07-02 01:28:00,
2013-07-01 20:37:00,69.7,56.1,30.07,NNE,32,0.0,0.0,62,0.00,,,0.00,Wunderground v.1.15,2013-07-02 01:37:00,
2013-07-01 20:42:00,68.7,56.0,30.07,NNE,31,0.0,0.0,64,0.00,,,0.00,Wunderground v.1.15,2013-07-02 01:42:00,
2013-07-01 20:52:00,67.2,55.9,30.07,NNE,32,0.0,0.0,67,0.00,,,0.00,Wunderground v.1.15,2013-07-02 01:52:00,
2013-07-01 20:58:00,66.5,56.0,30.07,NNE,32,0.0,0.0,69,0.00,,,0.00,Wunderground v.1.15,2013-07-02 01:58:00,
2013-07-01 21:08:00,65.3,55.3,30.06,NNE,32,0.0,0.0,70,0.00,,,0.00,Wunderground v.1.15,2013-07-02 02:08:00,
2013-07-01 21:13:00,64.9,55.3,30.07,NNE,30,0.0,0.0,71,0.00,,,0.00,Wunderground v.1.15,2013-07-02 02:13:00,
2013-07-01 21:18:00,64.4,55.2,30.07,NNE,31,0.0,0.0,72,0.00,,,0.00,Wunderground v.1.15,2013-07-02 02:18:00,
2013-07-01 21:28:00,63.7,55.3,30.07,NNE,32,0.0,0.0,74,0.00,,,0.00,Wunderground v.1.15,2013-07-02 02:28:00,
2013-07-01 21:37:00,63.2,54.8,30.07,NNE,32,0.0,0.0,74,0.00,,,0.00,Wunderground v.1.15,2013-07-02 02:37:00,
2013-07-01 21:42:00,62.9,54.5,30.07,NNE,30,0.0,0.0,74,0.00,,,0.00,Wunderground v.1.15,2013-07-02 02:42:00,
2013-07-01 21:47:00,62.5,54.5,30.07,NNE,30,0.0,0.0,75,0.00,,,0.00,Wunderground v.1.15,2013-07-02 02:47:00,
2013-07-01 21:52:00,62.1,54.4,30.08,NNE,30,0.0,0.0,76,0.00,,,0.00,Wunderground v.1.15,2013-07-02 02:52:00,
2013-07-01 21:58:00,61.7,54.4,30.08,NNE,32,0.0,0.0,77,0.00,,,0.00,Wunderground v.1.15,2013-07-02 02:58:00,
2013-07-01 22:07:00,61.5,54.2,30.08,NNE,32,0.0,0.0,77,0.00,,,0.00,Wunderground v.1.15,2013-07-02 03:07:00,
2013-07-01 22:12:00,61.2,54.3,30.08,NNE,32,0.0,0.0,78,0.00,,,0.00,Wunderground v.1.15,2013-07-02 03:12:00,
2013-07-01 22:17:00,60.8,54.2,30.08,NNE,30,0.0,0.0,79,0.00,,,0.00,Wunderground v.1.15,2013-07-02 03:17:00,
2013-07-01 22:23:00,60.5,54.0,30.08,NNE,30,0.0,0.0,79,0.00,,,0.00,Wunderground v.1.15,2013-07-02 03:23:00,
2013-07-01 22:33:00,60.2,55.0,30.08,NNE,30,0.0,0.0,83,0.00,,,0.00,Wunderground v.1.15,2013-07-02 03:33:00,
2013-07-01 22:38:00,60.1,54.9,30.08,NNE,30,0.0,0.0,83,0.00,,,0.00,Wunderground v.1.15,2013-07-02 03:38:00,
2013-07-01 22:47:00,59.9,55.1,30.08,NNE,30,0.0,0.0,84,0.00,,,0.00,Wunderground v.1.15,2013-07-02 03:47:00,
2013-07-01 22:52:00,59.9,55.1,30.08,NNE,30,0.0,0.0,84,0.00,,,0.00,Wunderground v.1.15,2013-07-02 03:52:00,
2013-07-01 22:58:00,59.9,55.1,30.08,NNE,30,0.0,0.0,84,0.00,,,0.00,Wunderground v.1.15,2013-07-02 03:58:00,
2013-07-01 23:02:00,60.0,55.2,30.08,NNE,30,0.0,0.0,84,0.00,,,0.00,Wunderground v.1.15,2013-07-02 04:02:00,
2013-07-01 23:07:00,60.1,55.2,30.08,NNE,30,0.0,0.0,84,0.00,,,0.00,Wunderground v.1.15,2013-07-02 04:07:00,
2013-07-01 23:12:00,60.0,55.2,30.08,NNE,30,0.0,0.0,84,0.00,,,0.00,Wunderground v.1.15,2013-07-02 04:12:00,
2013-07-01 23:17:00,60.1,55.6,30.08,NNE,30,0.0,0.0,85,0.00,,,0.00,Wunderground v.1.15,2013-07-02 04:17:00,
2013-07-01 23:22:00,60.2,55.7,30.09,NNE,30,0.0,0.0,85,0.00,,,0.00,Wunderground v.1.15,2013-07-02 04:22:00,
2013-07-01 23:27:00,60.3,56.1,30.08,NNE,30,0.0,0.0,86,0.00,,,0.00,Wunderground v.1.15,2013-07-02 04:27:00,
2013-07-01 23:32:00,60.4,56.2,30.08,NNE,30,0.0,0.0,86,0.00,,,0.00,Wunderground v.1.15,2013-07-02 04:32:00,
2013-07-01 23:42:00,60.7,56.2,30.08,NNE,30,0.0,0.0,85,0.00,,,0.00,Wunderground v.1.15,2013-07-02 04:42:00,
2013-07-01 23:47:00,60.9,56.4,30.08,NNE,30,0.0,0.0,85,0.00,,,0.00,Wunderground v.1.15,2013-07-02 04:47:00,
2013-07-01 23:57:00,61.0,56.5,30.08,NNE,30,0.0,0.0,85,0.00,,,0.00,Wunderground v.1.15,2013-07-02 04:57:00,